Simultaneous Nadir Overpasses (SNOs) Predictions

Prediction of SNOs between GOES-15 and METOP-B Satellite Orbit:

Table of predicted SNOs for the next 14.0 days since TLE Epoch: 3/30/2017
Index Date Time (GOES-15) GOES-15 Lat,Lon METOP-B Lat,Lon Distance(km) Time Diff (sec)
1 04/01/2017 18:30:29 -0.01,-135.21 -0.01,-135.08 14.63 80
2 04/04/2017 06:31:31 0.01,-135.29 0.15,-134.69 68.22 80
3 04/05/2017 18:50:22 -0.02,-135.31 0.86,-139.26 449.40 80
4 04/06/2017 18:27:02 -0.02,-135.33 -0.26,-134.26 122.16 80
5 04/08/2017 06:46:03 0.02,-135.38 -0.78,-138.86 396.59 80
6 04/09/2017 06:28:03 0.02,-135.41 0.34,-133.87 175.16 80
7 04/10/2017 18:46:55 -0.02,-135.43 0.66,-138.43 342.65 80
8 04/11/2017 18:23:35 -0.02,-135.44 -0.46,-133.44 228.55 80
9 04/13/2017 06:42:35 0.02,-135.49 -0.57,-138.03 291.26 80




NCC Satellite Simultaneous Nadir Overpasses (SNOs) Prediction Service
